Overview Statistics Trail Chart Weather Telemetry Raw packets
 

This is the latest recevied weather packets stored in our database for station/object N1YZ. If no packets are shown the sender has not sent any weather packets the latest 10 day(s).

<< 1 2 3 4 5 6 >>
Time Temp. Humidity Pressure Rain* Wind** Luminosity Snow
1788649686 30.56° C 77% 1030.9 hPa 0 mm - 23 W/m² -
1788649384 31.11° C 77% 1031 hPa 0 mm - 26 W/m² -
1788649083 31.11° C 76% 1030.9 hPa 0 mm - 25 W/m² -
1788648779 31.67° C 75% 1031 hPa 0 mm - 23 W/m² -
1788648478 31.67° C 74% 1031.1 hPa 0 mm - 19 W/m² -
1788648174 31.67° C 73% 1030.9 hPa 0 mm - 14 W/m² -
1788647869 32.22° C 72% 1030.9 hPa 0 mm - 12 W/m² -
1788647566 32.22° C 71% 1030.5 hPa 0 mm - 12 W/m² -
1788647261 32.22° C 71% 1030.8 hPa 0 mm - 14 W/m² -
1788646960 32.22° C 71% 1030.8 hPa 0 mm - 16 W/m² -
1788646656 32.22° C 71% 1030.6 hPa 0 mm - 17 W/m² -
1788646353 32.78° C 70% 1030.8 hPa 0 mm - 17 W/m² -
1788646049 32.78° C 71% 1030.6 hPa 0 mm - 19 W/m² -
1788645745 32.78° C 70% 1030.5 hPa 0 mm - 33 W/m² -
1788645444 32.78° C 69% 1030.5 hPa 0 mm - 35 W/m² -
1788645140 32.78° C 68% 1030.3 hPa 0 mm - 34 W/m² -
1788644836 33.33° C 67% 1030.3 hPa 0 mm - 28 W/m² -
1788644531 33.33° C 65% 1030.3 hPa 0 mm - 31 W/m² -
1788644226 33.89° C 63% 1030.5 hPa 0 mm - 27 W/m² -
1788643922 33.89° C 61% 1030.3 hPa 0 mm - 24 W/m² -
1788643617 33.89° C 60% 1030.5 hPa 0 mm - 29 W/m² -
1788643316 33.89° C 61% 1030.4 hPa 0 mm - 71 W/m² -
1788643011 34.44° C 59% 1030.6 hPa 0 mm - 42 W/m² -
1788642706 34.44° C 57% 1030.5 hPa 0 mm - 47 W/m² -
1788642403 34.44° C 61% 1030.7 hPa 0 mm - 41 W/m² -

* Rain latest hour (hover to see other rain measurements)
** Current wind speed in m/s (hover to see current wind gust speed)